Location: Cahas Mountain Overlook
(37.0833°N, 80.1000°W)
Time: 18:20:12
(UTC-04:00)

SR - Pass Details

Date: 11 February 2026
Orbit: 572 x 849 km, 66.7° (Epoch: 12 March)

Event Time Altitude Azimuth Distance (km) Brightness Sun altitude
Rises 07:27:37 0° 252° (WSW) 2,767 ? 1.9°
Reaches altitude 10° 07:30:41 10° 276° (W) 1,884 ? 2.4°
Maximum altitude 07:33:06 15° 312° (NW) 1,614 ? 2.9°
Drops below altitude 10° 07:35:33 10° 347° (NNW) 1,931 ? 3.4°
Sets 07:38:47 0° 11° (N) 2,882 ? 4.0°
